Weather History for Brno, Czech Republic

Change the Weather History Date:

Wednesday, April 9, 2014

  Actual Average Record
Temperature  
Mean Temperature 48 °F -  
Max Temperature 54 °F 61 °F - ()
Min Temperature 41 °F 41 °F - ()
Degree Days  
Heating Degree Days 18    
Moisture  
Dew Point 31 °F    
Average Humidity 45    
Maximum Humidity 76    
Minimum Humidity 21    
Precipitation  
Precipitation 0.00 in 0.05 in - ()
Sea Level Pressure  
Sea Level Pressure 30.08 in    
Wind  
Wind Speed 15 mph ()    
Max Wind Speed 27 mph    
Max Gust Speed 33 mph    
Visibility 7.8 miles    
Events Rain    
T = Trace of Precipitation, MM = Missing Value Source: Averaged Metar Reports

Daily Weather History Graph

Daily Weather History Graph

Search for Another Location

Airport:

Trip Planner

Search our weather history database for the weather conditions in past years. The results will help you decide how hot, cold, wet, or windy it might be!

Date:

Astronomy

Apr. 09, 2014 Rise Set
Actual Time 6:14 AM CEST 7:36 PM CEST
Civil Twilight 5:41 AM CEST 8:09 PM CEST
Nautical Twilight 5:01 AM CEST 8:49 PM CEST
Astronomical Twilight 4:19 AM CEST 9:32 PM CEST
Moon 1:41 PM CEST (4/9) 3:21 AM CEST (4/9)
Length of Visible Light 14h 27m
Length of Day
13h 21m
Waxing Gibbous, 69% of the Moon is Illuminated
Apr 9
Waxing Gibbous
Apr 15
Full
Apr 22
Last Quarter
Apr 29
New
May 7
First Quarter

Hourly Weather History & Observations

Time (CEST) Temp. Windchill Dew Point Humidity Pressure Visibility Wind Dir Wind Speed Gust Speed Precip Events Conditions
12:00 AM 56 °F - 35 °F 33% 30.02 in 28 mi WNW 15.7 mph - -   Overcast
12:00 AM 55.4 °F - 37.4 °F 51% 30.01 in - WNW 11.5 mph - N/A   Clear
12:30 AM 55.4 °F - 35.6 °F 47% 30.01 in - WNW 12.7 mph - N/A   Clear
1:00 AM 55 °F - 31 °F 28% 30.04 in 28 mi WNW 17.9 mph - -   Overcast
1:00 AM 55.4 °F - 32.0 °F 41% 30.04 in - WNW 17.3 mph - N/A   Clear
1:30 AM 53.6 °F - 30.2 °F 41% 30.04 in - WNW 17.3 mph - N/A   Clear
2:00 AM 53 °F - 31 °F 30% 30.04 in 28 mi WNW 13.4 mph - -   Partly Cloudy
2:00 AM 53.6 °F - 32.0 °F 44% 30.04 in - WNW 15.0 mph - N/A   Clear
2:30 AM 51.8 °F - 32.0 °F 47% 30.04 in - WNW 13.8 mph - N/A   Clear
3:00 AM 51 °F - 32 °F 37% 30.05 in 28 mi NW 8.9 mph - -   Overcast
3:00 AM 51.8 °F - 33.8 °F 50% 30.04 in - NW 15.0 mph - N/A   Clear
3:30 AM 51.8 °F - 33.8 °F 50% 30.04 in - WNW 13.8 mph - N/A   Clear
4:00 AM 50 °F - 30 °F 33% 30.06 in 28 mi NW 13.4 mph - -   Overcast
4:00 AM 50.0 °F - 30.2 °F 47% 30.04 in - NW 12.7 mph - N/A   Clear
4:30 AM 50.0 °F - 28.4 °F 43% 30.04 in - NW 13.8 mph - N/A   Clear
5:00 AM 49 °F - 27 °F 29% 30.07 in 28 mi NW 15.7 mph - -   Overcast
5:00 AM 48.2 °F - 28.4 °F 46% 30.04 in - NW 12.7 mph - N/A   Clear
5:30 AM 48.2 °F - 28.4 °F 46% 30.06 in - NW 11.5 mph - N/A   Clear
6:00 AM 47 °F - 28 °F 36% 30.09 in 31 mi WNW 11.2 mph - -   Scattered Clouds
6:00 AM 46.4 °F 40.4 °F 28.4 °F 50% 30.06 in - NW 13.8 mph - N/A   Clear
6:30 AM 46.4 °F 40.7 °F 28.4 °F 50% 30.06 in - NW 12.7 mph - N/A   Clear
7:00 AM 46 °F - 29 °F 39% 30.10 in 31 mi WNW 13.4 mph - -   Scattered Clouds
7:00 AM 44.6 °F 38.8 °F 30.2 °F 57% 30.06 in - WNW 11.5 mph - N/A   Clear
7:30 AM 46.4 °F 40.1 °F 30.2 °F 53% 30.09 in - WNW 15.0 mph - N/A   Clear
8:00 AM 47 °F - 29 °F 36% 30.12 in 31 mi WNW 13.4 mph - -   Scattered Clouds
8:00 AM 46.4 °F 41.5 °F 30.2 °F 53% 30.09 in - WNW 10.4 mph - N/A   Clear
8:30 AM 48.2 °F - 30.2 °F 50% 30.09 in 6.2 mi WNW 12.7 mph - N/A   Partly Cloudy
9:00 AM 49 °F - 31 °F 37% 30.11 in 31 mi WNW 15.7 mph - -   Mostly Cloudy
9:00 AM 48.2 °F - 32.0 °F 54% 30.09 in 6.2 mi WNW 15.0 mph - N/A   Mostly Cloudy
9:30 AM 48.2 °F - 32.0 °F 54% 30.09 in 6.2 mi West 17.3 mph - N/A   Scattered Clouds
10:00 AM 50 °F - 31 °F 35% 30.11 in 31 mi WNW 20.1 mph - -   Mostly Cloudy
10:00 AM 50.0 °F - 32.0 °F 50% 30.09 in 6.2 mi WNW 20.7 mph - N/A   Mostly Cloudy
10:30 AM 50.0 °F - 30.2 °F 47% 30.09 in 6.2 mi NW 21.9 mph - N/A   Mostly Cloudy
10:43 AM 50.0 °F - 30.2 °F 47% 30.09 in - NW 20.7 mph 32.2 mph N/A   Clear
11:00 AM 50 °F - 30 °F 33% 30.11 in 31 mi WNW 24.6 mph - -   Partly Cloudy
11:00 AM 50.0 °F - 30.2 °F 47% 30.09 in 6.2 mi WNW 23.0 mph - N/A   Scattered Clouds
11:30 AM 51.8 °F - 32.0 °F 47% 30.09 in 6.2 mi WNW 21.9 mph - N/A   Mostly Cloudy
12:00 PM 51 °F - 32 °F 37% 30.11 in 31 mi WNW 24.6 mph - -   Partly Cloudy
12:00 PM 50.0 °F - 33.8 °F 54% 30.09 in 6.2 mi WNW 26.5 mph - N/A   Scattered Clouds
12:30 PM 50.0 °F - 33.8 °F 54% 30.09 in 6.2 mi WNW 25.3 mph - N/A   Mostly Cloudy
12:45 PM 51.8 °F - 33.8 °F 50% 30.09 in 6.2 mi NW 21.9 mph 33.4 mph N/A   Scattered Clouds
1:00 PM 51 °F - 33 °F 38% 30.12 in 31 mi WNW 26.8 mph - -   Partly Cloudy
1:00 PM 51.8 °F - 33.8 °F 50% 30.09 in 6.2 mi WNW 23.0 mph - N/A   Mostly Cloudy
1:30 PM 50.0 °F - 32.0 °F 50% 30.09 in 6.2 mi NW 21.9 mph - N/A   Partly Cloudy
2:00 PM 51 °F - 32 °F 35% 30.12 in 31 mi NW 20.1 mph - -   Mostly Cloudy
2:00 PM 51.8 °F - 32.0 °F 47% 30.09 in 6.2 mi WNW 23.0 mph - N/A   Mostly Cloudy
2:21 PM 50.0 °F - 33.8 °F 54% 30.09 in 6.2 mi WNW 17.3 mph - N/A Rain Light Rain Showers
2:30 PM 50.0 °F - 33.8 °F 54% 30.09 in 6.2 mi WNW 13.8 mph - N/A   Scattered Clouds
2:52 PM 50.0 °F - 32.0 °F 50% 30.09 in 6.2 mi NW 17.3 mph 28.8 mph N/A   Mostly Cloudy
3:00 PM 50 °F - 30 °F 34% 30.12 in 25 mi WNW 22.4 mph - - Rain Light Rain Showers
3:00 PM 50.0 °F - 32.0 °F 50% 30.09 in 6.2 mi NW 18.4 mph - N/A Rain Light Rain Showers
3:21 PM 50.0 °F - 33.8 °F 54% 30.09 in 6.2 mi West 15.0 mph 29.9 mph N/A Rain Light Rain Showers
3:30 PM 50.0 °F - 33.8 °F 54% 30.09 in 6.2 mi WNW 18.4 mph 29.9 mph N/A Rain Light Rain Showers
4:00 PM 52 °F - 32 °F 34% 30.10 in 12 mi WNW 24.6 mph - - Rain Light Rain Showers
4:00 PM 51.8 °F - 33.8 °F 50% 30.06 in 6.2 mi West 19.6 mph - N/A Rain Light Rain Showers
4:30 PM 50.0 °F - 33.8 °F 54% 30.06 in 6.2 mi NW 9.2 mph - N/A   Partly Cloudy
4:37 PM 53.6 °F - 32.0 °F 44% 30.06 in 6.2 mi NW 11.5 mph 27.6 mph N/A   Partly Cloudy
5:00 PM 54 °F - 28 °F 24% 30.09 in 22 mi WNW 17.9 mph - - Rain Light Rain Showers
5:00 PM 53.6 °F - 28.4 °F 38% 30.06 in 6.2 mi WNW 18.4 mph - N/A   Partly Cloudy
5:01 PM 53.6 °F - 28.4 °F 38% 30.06 in 6.2 mi WNW 19.6 mph 31.1 mph N/A   Partly Cloudy
5:30 PM 51.8 °F - 26.6 °F 38% 30.06 in - WNW 24.2 mph - N/A   Clear
5:42 PM 51.8 °F - 26.6 °F 38% 30.06 in - NW 16.1 mph 27.6 mph N/A   Clear
6:00 PM 54 °F - 25 °F 21% 30.09 in 22 mi WNW 20.1 mph - -   Partly Cloudy
6:00 PM 53.6 °F - 26.6 °F 35% 30.06 in - NW 13.8 mph 25.3 mph N/A   Clear
6:30 PM 51.8 °F - 26.6 °F 38% 30.06 in - WNW 18.4 mph - N/A   Clear
7:00 PM 52 °F - 26 °F 24% 30.10 in 22 mi WNW 15.7 mph - -   Scattered Clouds
7:00 PM 51.8 °F - 26.6 °F 38% 30.06 in - West 18.4 mph - N/A   Clear
7:30 PM 50.0 °F - 28.4 °F 43% 30.09 in - WNW 13.8 mph - N/A   Clear
8:00 PM 48 °F - 27 °F 32% 30.12 in 22 mi West 8.9 mph - -   Partly Cloudy
8:00 PM 48.2 °F - 28.4 °F 46% 30.09 in - West 8.1 mph - N/A   Clear
8:30 PM 46.4 °F 43.5 °F 28.4 °F 50% 30.09 in - WSW 5.8 mph - N/A   Clear
9:00 PM 48 °F - 30 °F 38% 30.13 in 19 mi WNW 13.4 mph - -   Scattered Clouds
9:00 PM 48.2 °F - 30.2 °F 50% 30.09 in - WNW 15.0 mph - N/A   Clear
9:30 PM 46.4 °F 41.1 °F 32.0 °F 57% 30.09 in - WNW 11.5 mph - N/A   Clear
10:00 PM 43 °F - 32 °F 54% 30.14 in 19 mi SW 4.5 mph - -   Scattered Clouds
10:00 PM 42.8 °F 38.6 °F 32.0 °F 66% 30.09 in - West 6.9 mph - N/A   Clear
10:30 PM 42.8 °F 39.3 °F 32.0 °F 66% 30.09 in - SW 5.8 mph - N/A   Clear
11:00 PM 41 °F - 32 °F 61% 30.13 in 19 mi WSW 6.7 mph - -   Scattered Clouds
11:00 PM 41.0 °F 37.1 °F 32.0 °F 70% 30.09 in - WSW 5.8 mph - N/A   Clear
11:30 PM 41.0 °F 35.8 °F 33.8 °F 76% 30.09 in - WSW 8.1 mph - N/A   Clear